Location: ??
(35.5052°N, 139.7262°E)
Time: 03:36:15
(UTC+00:00)

Cosmos 1603 - Pass Details

Date: 20 June 2021
Orbit: 832 x 858 km, 71.0° (Epoch: 26 July)

Event Time Altitude Azimuth Distance (km) Brightness Sun altitude
Exits shadow 15:16:28 63° 47° (NE) 942 4.0 -30.5°
Drops below altitude 10° 15:21:15 10° 25° (NNE) 2,466 7.0 -30.4°
Sets 15:23:42 0° 24° (NNE) 3,401 8.0 -30.3°
